Flag for India Weather past 2 weeks in Kolkata, West Bengal, India

Now
88 °F

Haze.


Feels Like: 93 °F
Forecast: 74 / 92 °F
Wind: 12 mph from South

Location: Calcutta / Dum Dum

Current Time: Mar 28, 2015 at 4:39:43 PM

Latest Report: Mar 28, 2015 at 3:50 PM


Visibility: 2 mi

Pressure: 29.77 "Hg

Humidity: 55%

Dew point: 70 °F

Location of KolkataLocation

Historic Weather in Kolkata — Graph

°F

Kolkata temperature yesterday

Maximum temperature yesterday: 93 °F (at 12:20 PM)
Minimum temperature yesterday: 77 °F (at 12:50 AM)
Average temperature yesterday: 83 °F

Past Weeks' High & Low Weather Summary

 TemperatureHumidityPressure
High97 °F (Mar 23, 1:50 PM)100% (Mar 25, 6:20 AM)30.07 "Hg (Mar 25, 6:20 AM)
Low68 °F (Mar 21, 5:20 AM)24% (Mar 13, 2:50 PM)29.71 "Hg (Mar 23, 3:20 PM)
Average83 °F58%29.88 "Hg
* Reported Mar 13 2:50 PM — Mar 28 3:20 PM, Kolkata, Weather by CustomWeather, © 2015

Note: Actual official high and low records may vary slightly from our data, if they occured in-between our weather recording intervals... More about our weather records

Advertising

Kolkata weather history for previous 24 hours

 ConditionsComfort  
Time TempWeatherWind HumidityBarometerVisibility
3:20 PM
Sat, Mar 28
90 °FHaze.12 mph55%29.77 "Hg2 mi
2:50 PM90 °FHaze.10 mph55%29.80 "Hg2 mi
2:20 PM91 °FHaze.12 mph52%29.80 "Hg2 mi
1:50 PM91 °FScattered clouds.13 mph52%29.83 "Hg2 mi
1:20 PM90 °FScattered clouds.14 mph55%29.83 "Hg2 mi
12:50 PM88 °FScattered clouds.12 mph62%29.86 "Hg2 mi
12:20 PM88 °FScattered clouds.13 mph66%29.86 "Hg2 mi
11:50 AM88 °FScattered clouds.14 mph62%29.89 "Hg2 mi
11:20 AM86 °FScattered clouds.14 mph66%29.92 "Hg2 mi
10:50 AM86 °FPartly sunny.13 mph70%29.92 "Hg1 mi
10:20 AM84 °FFog.12 mph79%29.95 "Hg1 mi
9:50 AM82 °FFog.10 mph84%29.95 "Hg1 mi
9:20 AM82 °FFog.9 mph84%29.95 "Hg1 mi
8:50 AM82 °FFog.7 mph84%29.95 "Hg1 mi
8:20 AM81 °FFog.5 mph89%29.95 "Hg1 mi
7:50 AM81 °FFog.3 mph84%29.95 "Hg1 mi
7:20 AM79 °FFog.5 mph84%29.92 "Hg1 mi
6:50 AM77 °FFog.6 mph89%29.92 "Hg1 mi
6:20 AM77 °FFog.5 mph89%29.89 "Hg1 mi
5:50 AM77 °FFog.6 mph89%29.89 "Hg1 mi
5:20 AM77 °FFog.3 mph89%29.86 "Hg1 mi
4:50 AM79 °FPassing clouds.3 mph84%29.86 "Hg1 mi
4:20 AM79 °FPassing clouds.5 mph84%29.83 "Hg1 mi
3:50 AM79 °FPassing clouds.5 mph84%29.83 "Hg1 mi
2:50 AM79 °FPassing clouds.7 mph84%29.83 "Hg1 mi
2:20 AM79 °FPassing clouds.6 mph84%29.83 "Hg1 mi
1:50 AM79 °FPassing clouds.6 mph84%29.86 "Hg1 mi
1:20 AM81 °FPassing clouds.6 mph79%29.86 "Hg1 mi
12:50 AM81 °FPassing clouds.7 mph79%29.89 "Hg1 mi
12:20 AM81 °FPassing clouds.8 mph79%29.89 "Hg1 mi
11:50 PM
Fri, Mar 27
79 °FPassing clouds.9 mph84%29.89 "Hg1 mi
11:20 PM79 °FLight rain. Partly cloudy.8 mph84%29.86 "Hg1 mi
10:50 PM81 °FLight rain. Partly cloudy.8 mph79%29.89 "Hg1 mi
10:20 PM82 °FLight rain. Partly cloudy.8 mph74%29.92 "Hg1 mi
9:50 PM82 °FPassing clouds.12 mph74%29.95 "Hg1 mi
9:20 PM82 °FPartly cloudy.8 mph74%29.95 "Hg2 mi
8:50 PM82 °FPartly cloudy.8 mph74%29.92 "Hg2 mi
8:20 PM82 °FPartly cloudy.8 mph74%29.92 "Hg2 mi
7:50 PM82 °FPassing clouds.8 mph74%29.89 "Hg2 mi
7:20 PM82 °FPassing clouds.9 mph74%29.89 "Hg2 mi
6:50 PM84 °FPassing clouds.12 mph70%29.86 "Hg2 mi
6:20 PM84 °FPartly cloudy.8 mph70%29.86 "Hg2 mi
5:50 PM86 °FBroken clouds.12 mph66%29.83 "Hg2 mi
5:20 PM88 °FBroken clouds.12 mph62%29.83 "Hg2 mi
4:50 PM88 °FBroken clouds.12 mph62%29.83 "Hg2 mi
4:20 PM88 °FBroken clouds.12 mph62%29.83 "Hg2 mi
Weather by CustomWeather, © 2015

See weather overviewHow to use our weather pages